�������l�o���
Date,Time,MP-1(��Sv/h),MP-2(��Sv/h),MP-3(��Sv/h),MP-4(��Sv/h),MP-5(��Sv/h),MP-6(��Sv/h),MP-7(��Sv/h),MP-8(��Sv/h),����,����(m/s),���J
2022/05/08,00:00,0.584,0.872,0.553,1.055,0.746,0.349,0.605,0.569,��쐼,6.7,��
2022/05/08,00:10,0.584,0.867,0.554,1.054,0.747,0.351,0.606,0.569,��,7.9,��
2022/05/08,00:20,0.583,0.869,0.554,1.054,0.746,0.351,0.605,0.570,��쐼,8.1,��
2022/05/08,00:30,0.583,0.869,0.554,1.054,0.747,0.352,0.604,0.569,��쐼,7.1,��
2022/05/08,00:40,0.584,0.869,0.554,1.054,0.744,0.351,0.604,0.569,�쐼,5.7,��
2022/05/08,00:50,0.585,0.868,0.554,1.055,0.745,0.351,0.605,0.569,���쐼,5.9,��
2022/05/08,01:00,0.584,0.868,0.553,1.057,0.746,0.350,0.606,0.570,���쐼,5.8,��
2022/05/08,01:10,0.584,0.871,0.553,1.057,0.747,0.351,0.605,0.569,���쐼,4.3,��
2022/05/08,01:20,0.583,0.872,0.554,1.055,0.748,0.350,0.607,0.569,���쐼,3.5,��
2022/05/08,01:30,0.583,0.871,0.554,1.055,0.745,0.350,0.607,0.571,��,3.3,��
2022/05/08,01:40,0.582,0.871,0.553,1.055,0.746,0.352,0.606,0.570,���k��,2.8,��
2022/05/08,01:50,0.584,0.871,0.552,1.055,0.746,0.351,0.607,0.569,���k��,3.7,��
2022/05/08,02:00,0.582,0.867,0.552,1.055,0.747,0.351,0.606,0.569,���k��,5.1,��
2022/05/08,02:10,0.584,0.868,0.553,1.055,0.747,0.351,0.606,0.570,�k��,3.9,��
2022/05/08,02:20,0.583,0.868,0.554,1.056,0.746,0.352,0.608,0.569,�k��,4.9,��
2022/05/08,02:30,0.584,0.871,0.554,1.055,0.748,0.352,0.607,0.570,�k�k��,8.5,��
2022/05/08,02:40,0.585,0.870,0.554,1.055,0.745,0.352,0.607,0.570,�k�k��,8.5,��
2022/05/08,02:50,0.583,0.869,0.555,1.055,0.747,0.349,0.605,0.569,�k�k��,7.7,��
2022/05/08,03:00,0.584,0.870,0.554,1.056,0.748,0.350,0.603,0.569,�k�k��,6.0,��
2022/05/08,03:10,0.583,0.872,0.552,1.054,0.746,0.348,0.604,0.568,�k�k��,7.7,��
2022/05/08,03:20,0.583,0.870,0.553,1.057,0.746,0.349,0.604,0.570,�k�k��,7.8,��
2022/05/08,03:30,0.582,0.870,0.554,1.055,0.746,0.350,0.603,0.569,�k�k��,8.3,��
2022/05/08,03:40,0.583,0.869,0.552,1.056,0.745,0.348,0.604,0.569,�k�k��,7.2,��
2022/05/08,03:50,0.584,0.870,0.551,1.056,0.748,0.349,0.603,0.570,�k,6.4,��
2022/05/08,04:00,0.583,0.869,0.554,1.055,0.745,0.350,0.601,0.570,�k�k��,7.2,��
2022/05/08,04:10,0.582,0.871,0.551,1.055,0.747,0.350,0.604,0.570,�k�k��,8.5,��
2022/05/08,04:20,0.581,0.870,0.552,1.056,0.748,0.350,0.603,0.569,�k�k��,9.7,��
2022/05/08,04:30,0.582,0.870,0.551,1.055,0.748,0.350,0.604,0.568,�k��,10.9,��
2022/05/08,04:40,0.583,0.869,0.552,1.054,0.747,0.349,0.603,0.570,�k��,9.0,��
2022/05/08,04:50,0.582,0.871,0.552,1.057,0.747,0.350,0.603,0.568,�k��,6.4,��
2022/05/08,05:00,0.582,0.869,0.552,1.057,0.748,0.350,0.602,0.569,�k��,8.1,��
2022/05/08,05:10,0.583,0.869,0.551,1.056,0.748,0.349,0.603,0.569,�k�k��,8.9,��
2022/05/08,05:20,0.582,0.870,0.552,1.055,0.746,0.349,0.602,0.568,�k��,11.3,��
2022/05/08,05:30,0.582,0.871,0.553,1.056,0.747,0.351,0.602,0.569,�k��,8.2,��
2022/05/08,05:40,0.583,0.871,0.552,1.057,0.747,0.350,0.602,0.570,�k��,9.7,��
2022/05/08,05:50,0.582,0.869,0.554,1.055,0.747,0.349,0.601,0.568,�k��,9.8,��
2022/05/08,06:00,0.581,0.869,0.552,1.055,0.749,0.350,0.602,0.567,�k��,10.8,��
2022/05/08,06:10,0.583,0.870,0.552,1.054,0.746,0.350,0.602,0.568,�k�k��,9.2,��
2022/05/08,06:20,0.581,0.871,0.553,1.058,0.747,0.350,0.601,0.569,�k��,9.8,��
2022/05/08,06:30,0.584,0.870,0.552,1.058,0.747,0.348,0.602,0.570,�k��,9.2,��
2022/05/08,06:40,0.582,0.872,0.552,1.058,0.749,0.346,0.603,0.569,�k��,12.4,��
2022/05/08,06:50,0.583,0.869,0.553,1.056,0.748,0.347,0.603,0.569,�k��,8.7,��
2022/05/08,07:00,0.581,0.868,0.553,1.060,0.748,0.347,0.603,0.570,�k��,8.3,��
2022/05/08,07:10,0.582,0.867,0.553,1.056,0.748,0.347,0.601,0.569,�k��,9.8,��
2022/05/08,07:20,0.581,0.868,0.552,1.057,0.748,0.348,0.603,0.571,�k��,9.6,��
2022/05/08,07:30,0.581,0.869,0.552,1.057,0.748,0.347,0.600,0.569,�k��,8.8,��
2022/05/08,07:40,0.582,0.867,0.553,1.058,0.747,0.347,0.602,0.568,�k��,8.7,��
2022/05/08,07:50,0.582,0.869,0.551,1.058,0.747,0.348,0.602,0.568,�k��,7.1,��
2022/05/08,08:00,0.581,0.867,0.554,1.059,0.747,0.349,0.603,0.566,�k��,7.3,��
2022/05/08,08:10,0.581,0.868,0.552,1.059,0.746,0.349,0.602,0.567,�k��,6.4,��
2022/05/08,08:20,0.584,0.869,0.554,1.059,0.747,0.349,0.602,0.567,�k��,8.2,��
2022/05/08,08:30,0.581,0.868,0.554,1.062,0.746,0.348,0.603,0.567,�k�k��,9.9,��
2022/05/08,08:40,0.582,0.869,0.554,1.059,0.748,0.349,0.601,0.566,�k�k��,7.8,��
2022/05/08,08:50,0.581,0.869,0.554,1.061,0.746,0.349,0.603,0.567,�k��,9.2,��
2022/05/08,09:00,0.583,0.868,0.552,1.059,0.747,0.349,0.603,0.568,�k�k��,9.4,��
2022/05/08,09:10,0.582,0.868,0.552,1.060,0.748,0.349,0.603,0.568,�k�k��,9.4,��
2022/05/08,09:20,0.580,0.869,0.552,1.060,0.748,0.349,0.604,0.567,�k�k��,8.5,��
2022/05/08,09:30,0.582,0.869,0.551,1.060,0.747,0.349,0.602,0.568,�k��,8.7,��
2022/05/08,09:40,0.581,0.873,0.553,1.061,0.747,0.348,0.603,0.568,�k�k��,8.4,��
2022/05/08,09:50,0.584,0.872,0.553,1.061,0.749,0.348,0.604,0.568,�k�k��,8.0,��
2022/05/08,10:00,0.583,0.871,0.553,1.063,0.746,0.350,0.606,0.568,�k�k��,9.2,��
2022/05/08,10:10,0.583,0.872,0.552,1.061,0.746,0.349,0.604,0.568,�k��,11.7,��
2022/05/08,10:20,0.584,0.873,0.550,1.058,0.749,0.349,0.604,0.568,�k��,8.8,��
2022/05/08,10:30,0.583,0.871,0.552,1.063,0.748,0.350,0.604,0.569,�k�k��,10.3,��
2022/05/08,10:40,0.583,0.872,0.553,1.063,0.749,0.349,0.604,0.569,�k��,9.2,��
2022/05/08,10:50,0.585,0.872,0.553,1.065,0.749,0.351,0.603,0.569,�k��,11.1,��
2022/05/08,11:00,0.584,0.874,0.553,1.062,0.750,0.349,0.604,0.568,�k��,9.7,��
2022/05/08,11:10,0.585,0.872,0.552,1.063,0.750,0.349,0.605,0.570,�k��,8.5,��
2022/05/08,11:20,0.586,0.872,0.554,1.062,0.752,0.349,0.606,0.569,���k��,7.3,��
2022/05/08,11:30,0.583,0.875,0.552,1.060,0.751,0.349,0.604,0.569,�k�k��,8.4,��
2022/05/08,11:40,0.585,0.871,0.553,1.062,0.752,0.350,0.603,0.568,�k�k��,9.9,��
2022/05/08,11:50,0.585,0.872,0.553,1.061,0.753,0.352,0.606,0.569,�k�k��,10.4,��
2022/05/08,12:00,0.585,0.875,0.554,1.062,0.752,0.351,0.606,0.568,�k�k��,7.1,��
2022/05/08,12:10,0.587,0.876,0.554,1.062,0.752,0.349,0.606,0.570,�k�k��,8.9,��
2022/05/08,12:20,0.586,0.873,0.553,1.063,0.752,0.349,0.605,0.570,�k�k��,11.6,��
2022/05/08,12:30,0.587,0.873,0.554,1.063,0.752,0.350,0.605,0.570,�k�k��,8.4,��
2022/05/08,12:40,0.585,0.874,0.553,1.061,0.754,0.350,0.606,0.570,�k�k��,7.6,��
2022/05/08,12:50,0.585,0.874,0.555,1.062,0.754,0.350,0.605,0.568,�k�k��,8.3,��
2022/05/08,13:00,0.586,0.873,0.554,1.060,0.753,0.350,0.604,0.570,�k�k��,7.8,��
2022/05/08,13:10,0.586,0.874,0.553,1.063,0.753,0.348,0.606,0.570,�k�k��,8.0,��
2022/05/08,13:20,0.587,0.874,0.555,1.065,0.753,0.350,0.606,0.569,�k�k��,8.1,��
2022/05/08,13:30,0.585,0.874,0.555,1.065,0.753,0.351,0.603,0.569,�k�k��,10.8,��
2022/05/08,13:40,0.586,0.873,0.554,1.065,0.752,0.350,0.605,0.569,�k�k��,9.7,��
2022/05/08,13:50,0.587,0.873,0.553,1.066,0.752,0.350,0.606,0.571,�k�k��,9.3,��
2022/05/08,14:00,0.586,0.875,0.553,1.064,0.752,0.349,0.606,0.568,�k�k��,9.0,��
2022/05/08,14:10,0.585,0.873,0.553,1.064,0.755,0.351,0.605,0.567,�k,7.6,��
2022/05/08,14:20,0.585,0.874,0.555,1.065,0.753,0.351,0.606,0.570,�k��,8.4,��
2022/05/08,14:30,0.586,0.874,0.554,1.065,0.754,0.351,0.604,0.570,�k��,8.7,��
2022/05/08,14:40,0.587,0.875,0.555,1.065,0.753,0.350,0.606,0.569,�k�k��,7.8,��
2022/05/08,14:50,0.586,0.875,0.554,1.065,0.752,0.351,0.604,0.569,�k��,8.1,��
2022/05/08,15:00,0.586,0.873,0.555,1.063,0.756,0.349,0.605,0.568,�k��,7.9,��
2022/05/08,15:10,0.587,0.872,0.556,1.064,0.755,0.351,0.606,0.568,�k�k��,8.6,��
2022/05/08,15:20,0.586,0.876,0.554,1.063,0.755,0.350,0.605,0.569,�k��,8.7,��
2022/05/08,15:30,0.587,0.875,0.555,1.065,0.754,0.351,0.606,0.570,�k��,7.0,��
2022/05/08,15:40,0.587,0.877,0.553,1.065,0.754,0.351,0.606,0.568,�k�k��,8.2,��
2022/05/08,15:50,0.589,0.874,0.553,1.065,0.755,0.349,0.604,0.569,�k��,6.2,��
2022/05/08,16:00,0.587,0.875,0.556,1.066,0.754,0.351,0.605,0.570,�k�k��,5.7,��
2022/05/08,16:10,0.585,0.876,0.553,1.065,0.755,0.349,0.606,0.569,�k,7.1,��
2022/05/08,16:20,0.587,0.875,0.553,1.063,0.754,0.350,0.606,0.568,�k�k��,8.5,��
2022/05/08,16:30,0.587,0.876,0.553,1.066,0.754,0.350,0.606,0.568,�k�k��,7.8,��
2022/05/08,16:40,0.586,0.877,0.553,1.065,0.755,0.350,0.605,0.570,�k�k��,7.0,��
2022/05/08,16:50,0.586,0.874,0.553,1.068,0.754,0.349,0.605,0.569,�k�k��,8.0,��
2022/05/08,17:00,0.587,0.875,0.555,1.067,0.756,0.349,0.605,0.570,�k�k��,8.1,��
2022/05/08,17:10,0.586,0.877,0.553,1.067,0.756,0.349,0.606,0.570,�k�k��,8.2,��
2022/05/08,17:20,0.588,0.877,0.553,1.068,0.754,0.351,0.607,0.572,�k�k��,8.2,��
2022/05/08,17:30,0.586,0.878,0.553,1.067,0.755,0.349,0.606,0.572,�k�k��,6.4,��
2022/05/08,17:40,0.586,0.878,0.556,1.065,0.753,0.350,0.605,0.571,�k�k��,7.2,��
2022/05/08,17:50,0.586,0.880,0.555,1.068,0.754,0.349,0.605,0.571,�k�k��,7.0,��
2022/05/08,18:00,0.587,0.879,0.553,1.067,0.754,0.350,0.605,0.572,�k�k��,6.9,��
2022/05/08,18:10,0.587,0.877,0.555,1.067,0.755,0.349,0.605,0.571,�k�k��,6.2,��
2022/05/08,18:20,0.589,0.878,0.552,1.068,0.754,0.351,0.605,0.571,�k�k��,5.8,��
2022/05/08,18:30,0.587,0.880,0.553,1.070,0.755,0.352,0.606,0.571,�k��,6.1,��
2022/05/08,18:40,0.589,0.877,0.553,1.073,0.755,0.351,0.605,0.571,�k�k��,6.0,��
2022/05/08,18:50,0.587,0.880,0.554,1.069,0.757,0.351,0.604,0.571,�k�k��,5.3,��
2022/05/08,19:00,0.587,0.877,0.555,1.069,0.757,0.350,0.604,0.571,�k��,5.3,��
2022/05/08,19:10,0.589,0.878,0.556,1.070,0.757,0.352,0.605,0.572,�k��,4.7,��
2022/05/08,19:20,0.587,0.877,0.556,1.071,0.757,0.352,0.605,0.571,�k�k��,3.5,��
2022/05/08,19:30,0.586,0.877,0.555,1.068,0.757,0.351,0.606,0.569,�k��,3.0,��
2022/05/08,19:40,0.587,0.878,0.555,1.071,0.755,0.351,0.606,0.572,�k��,4.4,��
2022/05/08,19:50,0.588,0.877,0.555,1.070,0.758,0.351,0.605,0.570,���k��,3.9,��
2022/05/08,20:00,0.587,0.878,0.554,1.069,0.757,0.351,0.607,0.571,���k��,4.4,��
2022/05/08,20:10,0.587,0.877,0.554,1.069,0.755,0.350,0.605,0.570,���k��,4.4,��
2022/05/08,20:20,0.587,0.878,0.556,1.072,0.754,0.350,0.606,0.571,�k��,5.5,��
2022/05/08,20:30,0.587,0.876,0.555,1.068,0.757,0.351,0.607,0.571,���k��,6.1,��
2022/05/08,20:40,0.587,0.878,0.554,1.069,0.753,0.351,0.606,0.571,���k��,5.2,��
2022/05/08,20:50,0.587,0.880,0.555,1.070,0.756,0.352,0.608,0.571,�k�k��,4.0,��
2022/05/08,21:00,0.586,0.877,0.554,1.069,0.757,0.351,0.607,0.571,�k,3.7,��
2022/05/08,21:10,0.585,0.878,0.554,1.069,0.755,0.351,0.608,0.570,�k,4.0,��
2022/05/08,21:20,0.586,0.876,0.556,1.070,0.754,0.352,0.607,0.570,�k,4.1,��
2022/05/08,21:30,0.585,0.877,0.554,1.069,0.755,0.350,0.609,0.571,�k,4.5,��
2022/05/08,21:40,0.586,0.876,0.555,1.069,0.756,0.350,0.607,0.571,�k,5.1,��
2022/05/08,21:50,0.588,0.878,0.555,1.070,0.756,0.350,0.606,0.571,�k,5.0,��
2022/05/08,22:00,0.585,0.878,0.554,1.070,0.756,0.350,0.607,0.571,�k�k��,5.7,��
2022/05/08,22:10,0.585,0.877,0.556,1.070,0.755,0.350,0.606,0.571,�k�k��,5.2,��
2022/05/08,22:20,0.586,0.878,0.554,1.069,0.755,0.351,0.607,0.569,�k�k��,5.1,��
2022/05/08,22:30,0.586,0.878,0.556,1.069,0.755,0.351,0.607,0.572,�k��,4.1,��
2022/05/08,22:40,0.586,0.877,0.554,1.071,0.755,0.350,0.608,0.570,�k��,4.2,��
2022/05/08,22:50,0.587,0.878,0.555,1.072,0.756,0.351,0.606,0.571,�k�k��,4.6,��
2022/05/08,23:00,0.587,0.877,0.554,1.070,0.756,0.351,0.607,0.572,�k��,4.5,��
2022/05/08,23:10,0.587,0.877,0.557,1.070,0.755,0.351,0.607,0.572,�k��,3.8,��
2022/05/08,23:20,0.586,0.878,0.556,1.070,0.756,0.351,0.608,0.570,�k��,3.3,��
2022/05/08,23:30,0.585,0.877,0.554,1.069,0.755,0.352,0.607,0.572,�k��,3.5,��
2022/05/08,23:40,0.587,0.875,0.555,1.070,0.755,0.350,0.607,0.571,�k��,4.1,��
2022/05/08,23:50,0.586,0.878,0.555,1.070,0.757,0.350,0.608,0.571,�k�k��,4.1,��
